• In Netherlands
  • List of Countries
  • For 7 days
  • Water Temperature
  • Satellite Maps
  • Weather Map
  • Weather Widgets
  • user-avatar
    Login

    Hourly Weather Sylhet

    Today, 30 March, Thursday

    Time Temperature Precipitation Wind Pressure Humidity
    00:00 +25°C° 0 mm 2 mps 756 mmHg 90%
    01:00 +25°C° 2.4 mm 2 mps 756 mmHg 91%
    02:00 +25°C° 2.4 mm 2 mps 755 mmHg 93%
    03:00 +24°C° 2.4 mm 2 mps 755 mmHg 94%
    04:00 +24°C° 3.7 mm 2 mps 756 mmHg 94%
    05:00 +24°C° 3.7 mm 2 mps 756 mmHg 95%
    06:00 +24°C° 0 mm 2 mps 755 mmHg 95%
    07:00 +25°C° 4.4 mm 3 mps 756 mmHg 93%
    08:00 +26°C° 4.4 mm 4 mps 756 mmHg 91%
    09:00 +27°C° 4.4 mm 4 mps 757 mmHg 88%
    10:00 +28°C° 3.8 mm 4 mps 756 mmHg 84%
    11:00 +29°C° 3.8 mm 4 mps 756 mmHg 80%
    12:00 +33°C° 0 mm 5 mps 756 mmHg 71%
    13:00 +33°C° 1.7 mm 4 mps 755 mmHg 70%
    14:00 +33°C° 1.7 mm 4 mps 755 mmHg 69%
    15:00 +33°C° 1.7 mm 4 mps 754 mmHg 68%
    16:00 +32°C° 2.1 mm 4 mps 754 mmHg 71%
    17:00 +30°C° 2.1 mm 3 mps 754 mmHg 75%
    18:00 +29°C° 2.1 mm 3 mps 754 mmHg 79%
    19:00 +28°C° 2.4 mm 3 mps 755 mmHg 83%
    20:00 +27°C° 2.4 mm 3 mps 756 mmHg 86%
    21:00 +26°C° 2.4 mm 3 mps 756 mmHg 90%
    22:00 +26°C° 1.2 mm 3 mps 757 mmHg 91%
    23:00 +26°C° 1.2 mm 2 mps 757 mmHg 92%

    Tomorrow, 31 March, Friday

    Time Temperature Precipitation Wind Pressure Humidity
    00:00 +25°C° 1.2 mm 2 mps 757 mmHg 92%
    01:00 +25°C° 0.1 mm 2 mps 757 mmHg 93%
    02:00 +25°C° 0.1 mm 2 mps 757 mmHg 93%
    03:00 +25°C° 0.1 mm 2 mps 757 mmHg 93%
    04:00 +25°C° 0.1 mm 2 mps 757 mmHg 93%
    05:00 +25°C° 0.1 mm 3 mps 757 mmHg 93%
    06:00 +25°C° 0.1 mm 3 mps 758 mmHg 94%
    07:00 +25°C° 0.1 mm 3 mps 758 mmHg 92%
    08:00 +26°C° 0.1 mm 3 mps 758 mmHg 90%
    09:00 +26°C° 0.1 mm 3 mps 759 mmHg 89%
    10:00 +27°C° 0.1 mm 3 mps 759 mmHg 85%
    11:00 +28°C° 0.1 mm 2 mps 758 mmHg 82%
    12:00 +29°C° 0.1 mm 2 mps 758 mmHg 78%
    13:00 +30°C° 0.1 mm 2 mps 757 mmHg 75%
    14:00 +31°C° 0.1 mm 2 mps 756 mmHg 71%
    15:00 +31°C° 0.1 mm 2 mps 755 mmHg 68%
    16:00 +31°C° 0.1 mm 2 mps 755 mmHg 72%
    17:00 +30°C° 0.1 mm 2 mps 755 mmHg 75%
    18:00 +29°C° 0.1 mm 1 mps 755 mmHg 79%
    19:00 +28°C° 0.8 mm 2 mps 756 mmHg 82%
    20:00 +27°C° 0.8 mm 2 mps 756 mmHg 85%
    21:00 +26°C° 0.8 mm 2 mps 757 mmHg 88%
    22:00 +26°C° 0.5 mm 2 mps 757 mmHg 90%
    23:00 +26°C° 0.5 mm 2 mps 757 mmHg 92%

    Day after tomorrow, 1 April, Saturday

    Time Temperature Precipitation Wind Pressure Humidity
    00:00 +25°C° 0.5 mm 2 mps 757 mmHg 93%
    01:00 +25°C° 0.5 mm 2 mps 757 mmHg 94%
    02:00 +25°C° 0.5 mm 2 mps 756 mmHg 94%
    03:00 +25°C° 0.5 mm 2 mps 756 mmHg 94%
    04:00 +25°C° 0.1 mm 2 mps 756 mmHg 94%
    05:00 +25°C° 0.1 mm 2 mps 756 mmHg 94%
    06:00 +25°C° 0.1 mm 2 mps 756 mmHg 94%
    07:00 +26°C° 0 mm 2 mps 757 mmHg 90%
    08:00 +27°C° 0 mm 3 mps 757 mmHg 85%
    09:00 +29°C° 0 mm 3 mps 758 mmHg 81%
    10:00 +30°C° 0.1 mm 2 mps 757 mmHg 77%
    11:00 +31°C° 0.1 mm 2 mps 757 mmHg 73%
    12:00 +32°C° 0.1 mm 2 mps 757 mmHg 69%
    13:00 +32°C° 0.1 mm 2 mps 756 mmHg 67%
    14:00 +34°C° 0.1 mm 2 mps 755 mmHg 64%
    15:00 +34°C° 0.1 mm 2 mps 754 mmHg 62%
    16:00 +32°C° 0.1 mm 2 mps 754 mmHg 67%
    17:00 +31°C° 0.1 mm 2 mps 754 mmHg 71%
    18:00 +30°C° 0.1 mm 2 mps 754 mmHg 76%
    19:00 +29°C° 0.2 mm 2 mps 754 mmHg 79%
    20:00 +28°C° 0.2 mm 3 mps 755 mmHg 82%
    21:00 +27°C° 0.2 mm 3 mps 756 mmHg 85%
    22:00 +27°C° 0.3 mm 3 mps 756 mmHg 88%
    23:00 +26°C° 0.3 mm 2 mps 756 mmHg 91%

    2 April, Sunday

    Time Temperature Precipitation Wind Pressure Humidity
    00:00 +26°C° 0.3 mm 2 mps 756 mmHg 93%
    01:00 +26°C° 0.2 mm 2 mps 755 mmHg 94%
    02:00 +26°C° 0.2 mm 2 mps 755 mmHg 94%
    03:00 +26°C° 0.2 mm 2 mps 755 mmHg 95%
    04:00 +26°C° 0.2 mm 2 mps 755 mmHg 95%
    05:00 +26°C° 0.2 mm 2 mps 755 mmHg 94%
    06:00 +26°C° 0.2 mm 2 mps 755 mmHg 94%
    07:00 +26°C° 0.1 mm 3 mps 756 mmHg 92%
    08:00 +27°C° 0.1 mm 3 mps 756 mmHg 89%
    09:00 +28°C° 0.1 mm 4 mps 757 mmHg 86%
    10:00 +29°C° 0.3 mm 4 mps 756 mmHg 82%
    11:00 +30°C° 0.3 mm 3 mps 756 mmHg 77%
    12:00 +31°C° 0.3 mm 3 mps 756 mmHg 72%
    13:00 +31°C° 0.1 mm 3 mps 755 mmHg 72%
    14:00 +31°C° 0.1 mm 3 mps 754 mmHg 72%
    15:00 +31°C° 0.1 mm 2 mps 753 mmHg 72%
    16:00 +30°C° 0.2 mm 2 mps 753 mmHg 75%
    17:00 +30°C° 0.2 mm 2 mps 753 mmHg 78%
    18:00 +29°C° 0.2 mm 3 mps 752 mmHg 82%
    19:00 +28°C° 2.3 mm 3 mps 753 mmHg 84%
    20:00 +27°C° 2.3 mm 3 mps 755 mmHg 87%
    21:00 +27°C° 2.3 mm 2 mps 756 mmHg 90%
    22:00 +26°C° 0.4 mm 2 mps 756 mmHg 90%
    23:00 +26°C° 0.4 mm 2 mps 755 mmHg 91%

    3 April, Monday

    Time Temperature Precipitation Wind Pressure Humidity
    00:00 +26°C° 0.4 mm 2 mps 755 mmHg 92%
    01:00 +26°C° 0.4 mm 2 mps 755 mmHg 92%
    02:00 +26°C° 0.4 mm 3 mps 755 mmHg 92%
    03:00 +26°C° 0.4 mm 3 mps 754 mmHg 92%
    04:00 +26°C° 0.3 mm 3 mps 755 mmHg 92%
    05:00 +26°C° 0.3 mm 3 mps 755 mmHg 92%
    06:00 +25°C° 0.3 mm 3 mps 755 mmHg 92%
    07:00 +26°C° 0.2 mm 3 mps 756 mmHg 90%
    08:00 +26°C° 0.2 mm 3 mps 756 mmHg 88%
    09:00 +27°C° 0.2 mm 3 mps 757 mmHg 86%
    10:00 +27°C° 1.6 mm 3 mps 756 mmHg 84%
    11:00 +28°C° 1.6 mm 3 mps 756 mmHg 83%
    12:00 +28°C° 1.6 mm 3 mps 756 mmHg 82%
    13:00 +29°C° 4.7 mm 4 mps 755 mmHg 80%
    14:00 +29°C° 4.7 mm 4 mps 754 mmHg 79%
    15:00 +30°C° 4.7 mm 4 mps 753 mmHg 77%
    16:00 +29°C° 1 mm 4 mps 753 mmHg 80%
    17:00 +29°C° 1 mm 4 mps 753 mmHg 83%
    18:00 +28°C° 1 mm 4 mps 753 mmHg 86%
    19:00 +27°C° 2 mm 4 mps 754 mmHg 88%
    20:00 +27°C° 2 mm 3 mps 755 mmHg 90%
    21:00 +26°C° 2 mm 3 mps 756 mmHg 92%
    22:00 +26°C° 0.6 mm 3 mps 756 mmHg 92%
    23:00 +26°C° 0.6 mm 3 mps 756 mmHg 92%

    4 April, Tuesday

    Time Temperature Precipitation Wind Pressure Humidity
    00:00 +26°C° 0.6 mm 3 mps 756 mmHg 93%
    01:00 +26°C° 2.1 mm 3 mps 755 mmHg 93%
    02:00 +26°C° 2.1 mm 3 mps 755 mmHg 94%
    03:00 +26°C° 2.1 mm 2 mps 755 mmHg 95%
    04:00 +25°C° 3.4 mm 2 mps 755 mmHg 95%
    05:00 +25°C° 3.4 mm 2 mps 755 mmHg 95%
    06:00 +25°C° 3.4 mm 2 mps 755 mmHg 95%
    07:00 +26°C° 1.2 mm 3 mps 756 mmHg 94%
    08:00 +26°C° 1.2 mm 3 mps 756 mmHg 92%
    09:00 +27°C° 1.2 mm 4 mps 757 mmHg 91%
    10:00 +27°C° 6.1 mm 3 mps 756 mmHg 89%
    11:00 +27°C° 6.1 mm 3 mps 756 mmHg 88%
    12:00 +27°C° 6.1 mm 2 mps 756 mmHg 87%
    13:00 +28°C° 3.3 mm 2 mps 755 mmHg 86%
    14:00 +28°C° 3.3 mm 3 mps 755 mmHg 85%
    15:00 +29°C° 3.3 mm 3 mps 754 mmHg 85%
    16:00 +28°C° 1.3 mm 3 mps 754 mmHg 86%
    17:00 +28°C° 1.3 mm 3 mps 754 mmHg 88%
    18:00 +27°C° 1.3 mm 2 mps 754 mmHg 90%
    19:00 +27°C° 2 mm 2 mps 755 mmHg 92%
    20:00 +26°C° 2 mm 2 mps 756 mmHg 93%
    21:00 +25°C° 2 mm 2 mps 756 mmHg 95%
    22:00 +25°C° 0.8 mm 2 mps 756 mmHg 95%
    23:00 +25°C° 0.8 mm 2 mps 756 mmHg 95%
    Show more